Regional Weather Roundup
Issued by NWS Cleveland, OH

Home | Current Version | Previous Version | Graphics & Text | Print | Product List | Glossary On
Versions: 1 2 3 4 5 6 7 8 9 10 11 12 13 14 15 16 17 18 19 20 21 22 23 24 25 26 27 28 29 30 31 32 33 34 35 36 37 38 39 40 41 42 43 44 45 46 47 48 49 50
379
ASUS41 KCLE 170500
RWRCLE
OHIO REGIONAL WEATHER ROUNDUP
NATIONAL WEATHER SERVICE WILMINGTON, OH
1200 AM EST WED JAN 17 2018

NOTE: "FAIR" INDICATES FEW OR NO CLOUDS BELOW 12,000 FEET WITH NO
SIGNIFICANT WEATHER AND/OR OBSTRUCTIONS TO VISIBILITY.

OHZ001>008-015>018-024>027-034-035-043-044-170600-
   NORTHWEST OHIO

CITY           SKY/WX    TMP DP  RH WIND       PRES   REMARKS
DEFIANCE       FAIR      -1  -6  79 SW3       30.51S
FINDLAY        CLOUDY     6   0  76 SW8       30.49F WCI  -7
TOLEDO EXPRESS CLOUDY     3   0  87 W7        30.48F WCI  -9
TOLEDO EXEC    CLOUDY     4  -1  80 SW8       30.50F HAZE    WCI  -9
LIMA           FLURRIES   7   4  87 W12       30.49S WCI  -8
$$

OHZ009>014-019>023-028>033-038-089-170600-
   NORTHEAST OHIO

CITY           SKY/WX    TMP DP  RH WIND       PRES   REMARKS
CLE-HOPKINS    FAIR       3  -3  76 SW8       30.51S WCI -10
CLE-LAKEFRONT  FAIR       5  -2  72 SW12      30.49F WCI -11
CUY CO. ARPT   NOT AVBL
LORAIN-ELYRIA  FAIR       0  -8  69 SW9       30.48F WCI -15
ASHTABULA      CLOUDY     7   2  80 SW7       30.44S WCI  -5
AKRON-CANTON   FLURRIES   3  -3  76 SW8       30.45S WCI -10
WOOSTER        NOT AVBL
MANSFIELD      FAIR       0  -4  83 SW7       30.45S WCI -13
YOUNGSTOWN     MOCLDY     3  -2  79 SW8       30.42F WCI -10
$$

OHZ042-051>053-060>062-070>072-077>081-170600-
  SOUTHWEST OHIO

CITY           SKY/WX    TMP DP  RH WIND       PRES   REMARKS
CINC-COVINGTON FLURRIES   8   3  80 W8        30.54F WCI  -4
CINC-LUNKEN    CLOUDY    10   3  73 NW5       30.60F WCI   2
HAMILTON       CLOUDY     8   2  76 W7        30.59S WCI  -3
DAYTON         NOT AVBL
WRIGHT-PAT AFB CLOUDY     7  -1  70 SW8       30.53F WCI  -6
DAYTON GENERAL CLOUDY     7   1  76 W6        30.52F WCI  -3
WILMINGTON     CLOUDY     6   2  83 W7        30.51F WCI  -6
$$

OHZ036-037-039>041-045>050-054>059-063>069-073>076-082>088-170600-
  CENTRAL AND SOUTHEAST OHIO

CITY           SKY/WX    TMP DP  RH WIND       PRES   REMARKS
COLUMBUS       FLURRIES   7   1  76 NW10      30.53F WCI  -8
OSU AIRPORT    CLOUDY     6   1  80 W8        30.52F WCI  -7
BOLTON FIELD   LGT SNOW   5   1  83 CALM      30.53F
RICKENBACK AFB NOT AVBL
NEWARK         CLOUDY     6   0  76 W7        30.52S WCI  -6
MARION         FAIR      -1  -5  82 S7        30.50S WCI -14
LANCASTER      CLOUDY     5   0  79 W6        30.54R WCI  -6
ZANESVILLE     CLOUDY     5  -1  76 W3        30.51S
NEW PHILLY     FAIR      -3  -7  82 CALM      30.51S
$$




USA.gov is the U.S. government's official web portal to all federal, state and local government web resources and services.